Ask Your Question

luyu's profile - karma

luyu's karma change log

10 0 Can you export correct formulas from math to writer? ( 2018-07-30 12:06:10 +0200 )

10 0 How to embed PDF file in Writer? ( 2017-06-25 21:36:34 +0200 )

10 0 What features absolutely require Java ? ( 2017-06-25 21:21:38 +0200 )

10 0 What features absolutely require Java ? ( 2017-03-07 12:02:55 +0200 )

10 0 import dictionary ( 2016-06-20 22:04:18 +0200 )

10 0 Footnotes: How to get NOT superscripted numbers in the footnote area? ( 2015-11-09 00:30:23 +0200 )

10 0 Deleting Hyperlinks ( 2015-09-30 19:09:45 +0200 )

0 -10 Deleting Hyperlinks ( 2015-09-30 19:09:43 +0200 )

10 0 Deleting Hyperlinks ( 2015-09-30 19:09:36 +0200 )

15 0 What features absolutely require Java ? ( 2015-06-28 11:52:09 +0200 )

10 0 Deleting Hyperlinks ( 2014-09-21 08:06:47 +0200 )

10 0 How to import .odg into Impress? ( 2014-07-22 22:20:16 +0200 )

10 0 Is there a command line tool to convert documents to plain text files? ( 2014-06-10 21:55:44 +0200 )

10 0 How to invoke LibreOffice 3.5 in GUI mode using xming? ( 2014-03-21 16:43:05 +0200 )

10 0 How can I turn off ALL automatic formatting? ( 2014-01-29 16:10:38 +0200 )

0 -10 How can I turn off ALL automatic formatting? ( 2014-01-29 16:10:36 +0200 )

10 0 How can I turn off ALL automatic formatting? ( 2014-01-29 16:10:35 +0200 )

10 0 Keyboard shortcut to jump to beginning/end of line? ( 2013-10-17 08:59:48 +0200 )

10 0 Footnotes: How to get NOT superscripted numbers in the footnote area? ( 2013-03-25 10:04:18 +0200 )

10 0 How to embed video into Impress presentation? ( 2013-02-24 01:51:07 +0200 )

15 0 How to invoke LibreOffice 3.5 in GUI mode using xming? ( 2013-02-19 02:37:39 +0200 )

15 0 Why doesn't the Math formula toolbar show up? ( 2013-02-19 02:29:15 +0200 )

10 0 Why doesn't the Math formula toolbar show up? ( 2013-02-19 02:29:10 +0200 )

15 0 Garbage at end of edited line in Writer ( 2013-02-19 00:31:34 +0200 )

10 0 Garbage at end of edited line in Writer ( 2013-02-19 00:31:33 +0200 )

15 0 Switching to browser through hyperlink ( 2013-02-19 00:28:32 +0200 )

10 0 Switching to browser through hyperlink ( 2013-02-19 00:28:29 +0200 )

10 0 Footnotes: How to get NOT superscripted numbers in the footnote area? ( 2013-02-08 04:09:19 +0200 )

15 0 Start an Impress video in the middle? ( 2013-02-06 07:45:51 +0200 )

15 0 automate clearing cell contents? ( 2013-02-06 07:32:54 +0200 )

15 0 Download line to ZA broken ( 2013-01-30 15:36:37 +0200 )

15 0 Links in LibreOffice ( 2013-01-28 12:55:36 +0200 )

15 0 add voice narration to slide show? ( 2013-01-28 00:02:33 +0200 )

15 0 The layout for LibreOffice in Linux looks strange. ( 2013-01-28 00:02:22 +0200 )

15 0 Footnotes: How to get NOT superscripted numbers in the footnote area? ( 2013-01-28 00:01:40 +0200 )

15 0 Electrical and Fluid Schematic Palettes/Templates ( 2013-01-27 21:29:51 +0200 )

15 0 No envelope setting under "insert." ( 2013-01-27 19:25:11 +0200 )

15 0 Inserting page numbers in a document using Libre write 3.5 ( 2013-01-27 09:00:31 +0200 )

15 0 import dictionary ( 2013-01-27 08:13:46 +0200 )

15 0 Deleting Hyperlinks ( 2013-01-27 06:59:28 +0200 )

10 0 Deleting Hyperlinks ( 2013-01-27 06:59:26 +0200 )

15 0 Can you change Impress footer font size ( 2013-01-26 21:01:23 +0200 )

15 0 Can you export correct formulas from math to writer? ( 2013-01-26 18:34:23 +0200 )

15 0 Changing the default layout? ( 2013-01-26 18:31:41 +0200 )

15 0 red frames with descriptives of the cell ( 2013-01-26 18:05:16 +0200 )

15 0 pdf security permission valid only for windows ( 2013-01-26 18:03:37 +0200 )

15 0 My operating system is windows 7 home premium (japanese language). How can I get all the icons of LibreOffice in English? ( 2013-01-25 23:25:52 +0200 )

15 0 gnome printing dialog ( 2013-01-25 22:34:20 +0200 )

15 0 add collumns in office ( 2013-01-24 09:33:32 +0200 )

15 0 How do i install the help pack? ( 2013-01-24 09:30:21 +0200 )

15 0 Commandline spellcheck with libreoffice dictionary ( 2013-01-24 09:23:46 +0200 )

15 0 How can I type in a text-box ( 2013-01-24 09:22:01 +0200 )

10 0 uninstall open office ( 2013-01-24 09:14:34 +0200 )

15 0 uninstall open office ( 2013-01-24 09:14:31 +0200 )

0 -5 uninstall open office ( 2013-01-24 09:14:18 +0200 )

0 -10 uninstall open office ( 2013-01-24 09:14:11 +0200 )

15 0 uninstall open office ( 2013-01-24 09:13:09 +0200 )

10 0 uninstall open office ( 2013-01-24 09:13:09 +0200 )

10 0 Start an Impress video in the middle? ( 2013-01-24 07:29:28 +0200 )

15 0 Emailing doc from LibreOffice writer ( 2013-01-23 11:16:40 +0200 )

15 0 Business Cards ( 2013-01-23 11:14:00 +0200 )

15 0 How to embed PDF file in Writer? ( 2013-01-23 10:09:07 +0200 )

10 0 How can I turn off ALL automatic formatting? ( 2012-12-12 16:30:57 +0200 )

10 0 My operating system is windows 7 home premium (japanese language). How can I get all the icons of LibreOffice in English? ( 2012-11-24 11:38:12 +0200 )

10 0 How to embed video into Impress presentation? ( 2012-11-24 05:35:32 +0200 )

10 0 Singular download question ( 2012-08-01 00:46:02 +0200 )

2 0 Highlighted black spaces? ( 2012-07-29 00:29:30 +0200 )

10 0 Singular download question ( 2012-07-25 15:05:49 +0200 )

10 0 Singular download question ( 2012-07-25 13:05:33 +0200 )

10 0 Links in LibreOffice ( 2012-07-02 16:28:22 +0200 )

10 0 Highlighted black spaces? ( 2012-07-02 06:55:41 +0200 )

10 0 Highlighted black spaces? ( 2012-07-02 00:12:39 +0200 )

10 0 Commandline spellcheck with libreoffice dictionary ( 2012-06-28 17:19:09 +0200 )

10 0 What features absolutely require Java ? ( 2012-06-28 03:03:53 +0200 )

10 0 Footnotes: How to get NOT superscripted numbers in the footnote area? ( 2012-06-12 22:23:54 +0200 )

10 0 Choose GUI toolkit for LO session ( 2012-06-04 15:24:24 +0200 )

15 0 Choose GUI toolkit for LO session ( 2012-06-04 15:24:18 +0200 )

10 0 Unwanted digits added to Heading 1, 2, or 3 of Writer document ( 2012-05-31 08:46:38 +0200 )

10 0 Electrical and Fluid Schematic Palettes/Templates ( 2012-05-30 23:40:36 +0200 )

10 0 How can I turn off ALL automatic formatting? ( 2012-05-23 21:02:31 +0200 )

15 0 How can I turn off ALL automatic formatting? ( 2012-05-23 08:24:32 +0200 )

10 0 What features absolutely require Java ? ( 2012-05-21 10:29:27 +0200 )

10 0 What features absolutely require Java ? ( 2012-05-20 23:44:47 +0200 )

10 0 Deleting Hyperlinks ( 2012-05-17 23:02:46 +0200 )

10 0 Emailing doc from LibreOffice writer ( 2012-05-16 21:51:57 +0200 )

10 0 Heading 3 not appearing in table of contents ( 2012-05-14 21:05:50 +0200 )

15 0 Heading 3 not appearing in table of contents ( 2012-05-14 20:53:30 +0200 )

10 0 How can I type in a text-box ( 2012-05-14 19:33:57 +0200 )

10 0 Inserting page numbers in a document using Libre write 3.5 ( 2012-05-08 16:45:14 +0200 )

10 0 Singular download question ( 2012-05-07 22:02:39 +0200 )

10 0 Singular download question ( 2012-05-07 13:49:46 +0200 )

10 0 Singular download question ( 2012-05-06 23:55:54 +0200 )

10 0 Is removing unwanted extensions possible? ( 2012-05-06 18:18:17 +0200 )

15 0 Is removing unwanted extensions possible? ( 2012-05-06 14:53:06 +0200 )

10 0 Deleting Hyperlinks ( 2012-04-22 23:27:28 +0200 )

10 0 Download line to ZA broken ( 2012-04-15 22:10:52 +0200 )

15 0 Keyboard shortcut to jump to beginning/end of line? ( 2012-04-14 01:14:04 +0200 )

15 0 How to embed video into Impress presentation? ( 2012-04-13 14:04:56 +0200 )

10 0 How to import .odg into Impress? ( 2012-04-12 15:48:13 +0200 )

15 0 How to import .odg into Impress? ( 2012-04-12 15:48:07 +0200 )